This is the latest recevied weather packets stored in our database for station/object SR9WXY. If no packets are shown the sender has not sent any weather packets the latest 10 day(s).
| Time | Temp. | Humidity | Pressure | Rain* | Wind** | Luminosity | Snow |
|---|---|---|---|---|---|---|---|
| 1787990074 | 13.89° C | 100% | 882.8 hPa | - | - | - | - |
| 1787989774 | 13.33° C | 100% | 882.7 hPa | - | - | - | - |
| 1787989474 | 13.33° C | 100% | 882.6 hPa | - | - | - | - |
| 1787989174 | 13.33° C | 100% | 882.6 hPa | - | - | - | - |
| 1787988881 | 12.78° C | 100% | 882.6 hPa | - | - | - | - |
| 1787988272 | 12.78° C | 100% | 882.6 hPa | - | - | - | - |
| 1787987972 | 12.22° C | 100% | 882.6 hPa | - | - | - | - |
| 1787987672 | 12.78° C | 100% | 882.7 hPa | - | - | - | - |
| 1787987370 | 12.78° C | 100% | 882.5 hPa | - | - | - | - |
| 1787987070 | 13.33° C | 100% | 882.6 hPa | - | - | - | - |
| 1787986770 | 13.33° C | 100% | 882.7 hPa | - | - | - | - |
| 1787986461 | 13.33° C | 100% | 882.5 hPa | - | - | - | - |
| 1787986161 | 12.78° C | 100% | 882.5 hPa | - | - | - | - |
| 1787985861 | 12.78° C | 100% | 882.5 hPa | - | - | - | - |
| 1787985561 | 12.78° C | 100% | 882.4 hPa | - | - | - | - |
| 1787985261 | 12.78° C | 100% | 882.5 hPa | - | - | - | - |
| 1787984961 | 12.78° C | 100% | 882.5 hPa | - | - | - | - |
| 1787984661 | 12.78° C | 100% | 882.4 hPa | - | - | - | - |
| 1787984361 | 12.78° C | 100% | 882.2 hPa | - | - | - | - |
| 1787984061 | 12.78° C | 100% | 882.1 hPa | - | - | - | - |
| 1787983762 | 12.78° C | 100% | 882 hPa | - | - | - | - |
| 1787983462 | 12.78° C | 100% | 882 hPa | - | - | - | - |
| 1787983162 | 12.78° C | 100% | 882 hPa | - | - | - | - |
| 1787982861 | 12.22° C | 100% | 881.9 hPa | - | - | - | - |
| 1787982561 | 12.22° C | 100% | 882 hPa | - | - | - | - |
* Rain since midnight (hover to see other rain measurements)
** Current wind speed in m/s (hover to see current wind gust speed)